Location: Unspecified
(0.0000°N, 0.0000°E)
Time: 05:27:55
(UTC+00:00)

CANX-2 - Pass Details

Date: 18 May 2026
Orbit: 542 x 558 km, 97.9° (Epoch: 11 June)

Event Time Altitude Azimuth Distance (km) Brightness Sun altitude
Rises 03:25:57 0° 33° (NNE) 2,685 ? -35.1°
Reaches altitude 10° 03:28:20 10° 46° (NE) 1,797 ? -34.6°
Enters shadow 03:29:30 16° 60° (ENE) 1,439 ? -34.3°
